Regional Weather Roundup
Issued by NWS

Home | Current Version | Previous Version | Graphics & Text | Print | Product List | Glossary On
Versions: 1 2 3 4 5 6 7 8 9 10 11 12 13 14 15 16 17 18 19 20 21 22 23 24 25 26 27 28 29 30 31 32 33 34 35 36 37 38 39 40 41 42 43 44 45 46 47 48 49 50
000
ASUS43 KLMK 200810
RWRKY
KENTUCKY REGIONAL WEATHER ROUNDUP
NATIONAL WEATHER SERVICE LOUISVILLE KY
400 AM EDT SAT SEP 20 2014

NOTE "FAIR" INDICATES FEW OR NO CLOUDS BELOW 12,000 FEET
WITH NO SIGNIFICANT WEATHER AND/OR OBSTRUCTIONS TO VISIBILITY.

KYZ001>023-026-027-061>063-070>075-200900-
WESTERN AND SOUTH CENTRAL KENTUCKY

CITY           SKY/WX    TMP DP  RH WIND       PRES   REMARKS
PADUCAH        CLEAR     62  58  86 CALM      30.01F
HENDERSON      CLEAR     55  52  88 CALM      30.02S
OWENSBORO      CLEAR     62  59  90 SE6       30.03F
HOPKINSVILLE   PTCLDY    64  64 100 SE3       30.04F
BOWLING GREEN  CLEAR     69  63  81 S8        30.06S
GLASGOW        CLEAR     69  63  81 S7        30.08S
$$

KYZ024-025-028>034-038-045-046-053-200900-
NORTH CENTRAL KENTUCKY

CITY           SKY/WX    TMP DP  RH WIND       PRES   REMARKS
LOUISVILLE/SDF PTCLDY    63  58  83 SE7       30.04F
LOUISVILLE/LOU PTCLDY    61  57  87 CALM      30.05F
FORT KNOX      CLEAR     61  58  88 E2        30.04F
$$

KYZ035>037-039>044-047>052-055>060-089>105-200900-
NORTHEAST KENTUCKY

CITY           SKY/WX    TMP DP  RH WIND       PRES   REMARKS
LEXINGTON      PTCLDY    66  60  81 S9        30.09S
COVINGTON      PTCLDY    61  57  87 S6        30.05F
FRANKFORT      MOCLDY    58  56  93 CALM      30.07S
$$

KYZ054-064>069-076>088-106>120-200900-
SOUTHEAST KENTUCKY

CITY           SKY/WX    TMP DP  RH WIND       PRES   REMARKS
JACKSON        MOCLDY    65  57  75 S3        30.14S
LONDON         CLEAR     64  57  78 SE3       30.14S
SOMERSET       MOCLDY    64  61  88 CALM      30.13S
MIDDLESBORO    CLEAR     61  57  88 CALM      30.17S
MONTICELLO     MOSUNNY   70  60  70 S7        30.13R
$$



USA.gov is the U.S. government's official web portal to all federal, state and local government web resources and services.